Location: Worth Mountain WMA
(34.9569°N, 81.4819°W)
Time: 04:08:11
(UTC-04:00)

Amateur Radio Satellites - All Passes

Search period start: 20 October 2014 03:38
Search period end: 21 October 2014 03:38
Location: Worth Mountain WMA, 34.9569°N, 81.4819°W

Satellite Date Start Highest point End Downlink Frequencies (MHz)
Time Altitude Azimuth
AO-Echo 20 Oct 03:39:31 03:44:49 79° 284° (WNW) 03:50:08 ?
Oscar 19 20 Oct 03:55:49 04:00:07 28° 291° (WNW) 04:04:25 437.125 CW, 437.150 USB
AO-27 20 Oct 03:59:09 04:04:21 67° 286° (WNW) 04:09:31 436.795 MHz FM
JAS-1B 20 Oct 04:00:47 04:06:57 48° 288° (WNW) 04:14:15 435.800 - 435.900 CW/SSB
Sapphire 20 Oct 04:31:11 04:34:58 20° 105° (ESE) 04:38:46 437.095 MHz 1200 baud AX-25 AFSK
AO-7 20 Oct 04:42:27 04:49:20 28° 97° (E) 04:56:10 29.400 - 29.500 MHz
Gurwin Techsat 1B 20 Oct 04:42:32 04:47:40 51° 287° (WNW) 04:52:47 435.225 FM
Uribyol 2 20 Oct 04:50:52 04:54:38 21° 294° (WNW) 04:58:24 436.500 FM
PCSat 20 Oct 04:53:05 04:57:56 35° 109° (ESE) 05:02:50 145.825 MHz
ITAMSAT 1 20 Oct 04:55:32 04:59:15 20° 294° (WNW) 05:02:57 435.822 SSB
TMSAT-1 20 Oct 04:57:21 05:02:27 50° 287° (WNW) 05:07:32 436.925 FM
RS-15 20 Oct 05:16:47 05:20:28 12° 10° (N) 05:24:11 29.354 - 29.394 USB, Beacon 29.352 USB
Uosat F 20 Oct 05:20:00 05:24:39 36° 98° (E) 05:29:16 435.120 FM
OPAL 20 Oct 05:44:14 05:49:26 85° 74° (ENE) 05:54:35 ?
Sapphire 20 Oct 06:12:48 06:17:59 47° 300° (WNW) 06:23:12 437.095 MHz 1200 baud AX-25 AFSK
JAS-2 20 Oct 06:16:56 06:24:09 41° 97° (E) 06:31:24 435.800 - 435.900 CW/SSB, 435.910 FM
AO-7 20 Oct 06:34:19 06:42:22 57° 293° (WNW) 06:50:26 29.400 - 29.500 MHz
PCSat 20 Oct 06:36:46 06:41:21 28° 305° (NW) 06:45:59 145.825 MHz
Hamsat 20 Oct 06:48:19 06:52:14 39° 98° (E) 06:56:10 145.90 MHz
Uosat F 20 Oct 06:59:20 07:03:10 22° 293° (WNW) 07:06:59 435.120 FM
STRAND 1 20 Oct 07:20:14 07:25:17 67° 74° (ENE) 07:30:24 ?
RS-15 20 Oct 07:28:27 07:38:06 32° 44° (NE) 07:48:02 29.354 - 29.394 USB, Beacon 29.352 USB
JAS-2 20 Oct 08:02:00 08:08:58 39° 292° (WNW) 08:16:04 435.800 - 435.900 CW/SSB, 435.910 FM
Hamsat 20 Oct 08:25:35 08:27:50 14° 292° (WNW) 08:30:05 145.90 MHz
SO-67 20 Oct 08:32:01 08:35:29 86° 282° (WNW) 08:38:55 435.3500 MHz FM
STRAND 1 20 Oct 09:03:12 09:04:53 12° 269° (W) 09:06:34 ?
HO-68 20 Oct 09:09:36 09:14:22 19° 93° (E) 09:19:06 435.675 MHz FM
Saudisat 1A 20 Oct 09:28:46 09:33:08 80° 300° (WNW) 09:37:33 436.775 MHz
RS-15 20 Oct 09:40:15 09:51:26 74° 245° (WSW) 10:03:08 29.354 - 29.394 USB, Beacon 29.352 USB
PANSAT 20 Oct 09:52:51 09:55:21 17° 163° (SSE) 09:57:51 not established
Oscar 11 20 Oct 10:21:15 10:24:32 21° 95° (E) 10:27:48 145.825 FM, Beacon 2401.500 USB
MaSat-1 20 Oct 10:34:29 10:35:15 11° 57° (ENE) 10:36:01 437.345 MHz
HO-68 20 Oct 10:55:24 11:02:32 69° 288° (WNW) 11:09:39 435.675 MHz FM
ZACube-1 20 Oct 10:56:03 10:59:17 21° 95° (E) 11:02:28 437.345 MHz
UKube-1 20 Oct 11:10:11 11:14:35 88° 284° (WNW) 11:18:56 145.840 MHz, 145.915 MHz
PANSAT 20 Oct 11:31:40 11:35:01 29° 175° (S) 11:38:22 not established
FUNcube-1 20 Oct 11:41:14 11:45:31 76° 102° (ESE) 11:49:42 145.950 - 145.970 MHz USB
Oscar 11 20 Oct 11:57:02 12:00:39 27° 289° (WNW) 12:04:15 145.825 FM, Beacon 2401.500 USB
RS-15 20 Oct 11:57:26 12:01:56 13° 262° (W) 12:06:31 29.354 - 29.394 USB, Beacon 29.352 USB
MaSat-1 20 Oct 12:09:33 12:10:55 14° 255° (WSW) 12:12:15 437.345 MHz
ZACube-1 20 Oct 12:32:04 12:35:38 26° 290° (WNW) 12:39:08 437.345 MHz
HO-68 20 Oct 12:47:14 12:48:55 11° 306° (NW) 12:50:37 435.675 MHz FM
JAS-1B 20 Oct 12:56:58 12:59:37 13° 63° (ENE) 13:02:12 435.800 - 435.900 CW/SSB
PANSAT 20 Oct 13:11:30 13:14:46 27° 188° (S) 13:18:03 not established
KITSAT 1 20 Oct 13:28:47 13:36:46 68° 113° (ESE) 13:44:46 435.175 FM
Oscar 19 20 Oct 13:30:15 13:34:43 31° 70° (ENE) 13:39:11 437.125 CW, 437.150 USB
AO-27 20 Oct 13:37:25 13:40:11 15° 64° (ENE) 13:42:57 436.795 MHz FM
PCSat 20 Oct 13:45:07 13:48:26 16° 49° (NE) 13:51:45 145.825 MHz
SO-50 20 Oct 14:00:50 14:04:50 33° 113° (ESE) 14:08:55 436.795 FM
Oscar 16 20 Oct 14:14:17 14:19:28 88° 77° (ENE) 14:24:39 437.025 USB, Beacon 2401.1428
Gurwin Techsat 1B 20 Oct 14:22:08 14:25:54 20° 66° (ENE) 14:29:41 435.225 FM
Uribyol 2 20 Oct 14:25:09 14:30:06 46° 72° (ENE) 14:35:04 436.500 FM
ITAMSAT 1 20 Oct 14:29:53 14:34:50 47° 72° (ENE) 14:39:50 435.822 SSB
TMSAT-1 20 Oct 14:36:37 14:40:23 20° 66° (ENE) 14:44:10 436.925 FM
JAS-1B 20 Oct 14:43:22 14:49:47 72° 257° (WSW) 14:55:32 435.800 - 435.900 CW/SSB
ISS 20 Oct 14:48:39 14:51:58 87° 316° (NW) 14:55:19 145.800 FM
AO-Echo 20 Oct 14:49:15 14:54:02 86° 257° (WSW) 14:59:00 ?
PANSAT 20 Oct 14:52:29 14:54:24 13° 200° (SSW) 14:56:18 not established
Sapphire 20 Oct 15:03:48 15:09:13 68° 63° (ENE) 15:14:36 437.095 MHz 1200 baud AX-25 AFSK
Oscar 19 20 Oct 15:09:40 15:13:59 27° 264° (W) 15:18:19 437.125 CW, 437.150 USB
AO-27 20 Oct 15:14:00 15:19:07 61° 259° (WSW) 15:24:18 436.795 MHz FM
KITSAT 1 20 Oct 15:26:11 15:32:45 27° 312° (NW) 15:39:21 435.175 FM
PCSat 20 Oct 15:26:57 15:32:21 68° 247° (WSW) 15:37:42 145.825 MHz
AO-7 20 Oct 15:38:19 15:45:09 30° 61° (ENE) 15:52:00 29.400 - 29.500 MHz
SO-50 20 Oct 15:41:50 15:45:25 23° 309° (NW) 15:49:04 436.795 FM
UOSAT-12 20 Oct 15:50:48 15:55:05 40° 114° (ESE) 15:59:28 437.025 FM, 437.400 FM
Gurwin Techsat 1B 20 Oct 16:00:28 16:05:30 44° 261° (W) 16:10:34 435.225 FM
Uribyol 2 20 Oct 16:06:15 16:09:44 18° 266° (W) 16:13:16 436.500 FM
ITAMSAT 1 20 Oct 16:11:10 16:14:31 17° 266° (W) 16:17:54 435.822 SSB
TMSAT-1 20 Oct 16:14:55 16:19:56 44° 261° (W) 16:25:00 436.925 FM
Oscar 10/S400 20 Oct 16:22:28 16:40:45 64° 164° (SSE) 17:24:53 145.825 - 145.975 CW/USB, Beacon 145.810 USB
ISS 20 Oct 16:27:36 16:29:06 12° 334° (NNW) 16:30:37 145.800 FM
Uosat F 20 Oct 16:30:08 16:34:40 36° 70° (ENE) 16:39:14 435.120 FM
Sapphire 20 Oct 16:49:36 16:51:58 13° 257° (WSW) 16:54:20 437.095 MHz 1200 baud AX-25 AFSK
AO-7 20 Oct 17:29:24 17:37:27 56° 257° (WSW) 17:45:33 29.400 - 29.500 MHz
UOSAT-12 20 Oct 17:31:52 17:35:23 21° 310° (NW) 17:38:57 437.025 FM, 437.400 FM
Hamsat 20 Oct 17:39:12 17:42:13 19° 70° (ENE) 17:45:14 145.90 MHz
OPAL 20 Oct 17:58:07 18:02:23 28° 99° (E) 18:06:36 ?
Saudisat 1A 20 Oct 17:58:47 18:02:44 31° 54° (NE) 18:06:39 436.775 MHz
Uosat F 20 Oct 18:09:42 18:13:29 22° 265° (W) 18:17:19 435.120 FM
JAS-2 20 Oct 18:10:20 18:15:53 74° 74° (ENE) 18:22:11 435.800 - 435.900 CW/SSB, 435.910 FM
SO-67 20 Oct 19:02:24 19:04:42 17° 71° (ENE) 19:07:01 435.3500 MHz FM
Hamsat 20 Oct 19:14:16 19:17:57 29° 263° (W) 19:21:38 145.90 MHz
STRAND 1 20 Oct 19:34:40 19:39:09 29° 97° (E) 19:43:36 ?
OPAL 20 Oct 19:36:59 19:41:09 27° 293° (WNW) 19:45:17 ?
Saudisat 1A 20 Oct 19:38:40 19:42:06 22° 249° (WSW) 19:45:32 436.775 MHz
HO-68 20 Oct 19:39:59 19:40:28 10° 54° (NE) 19:40:58 435.675 MHz FM
JAS-2 20 Oct 19:59:40 20:01:49 12° 273° (W) 20:04:02 435.800 - 435.900 CW/SSB, 435.910 FM
SO-67 20 Oct 20:34:56 20:37:31 20° 265° (W) 20:40:07 435.3500 MHz FM
STRAND 1 20 Oct 21:13:53 21:18:12 28° 291° (WNW) 21:22:31 ?
Oscar 11 20 Oct 21:14:55 21:16:33 12° 66° (ENE) 21:18:11 145.825 FM, Beacon 2401.500 USB
HO-68 20 Oct 21:19:45 21:26:48 65° 71° (ENE) 21:33:53 435.675 MHz FM
ISS 20 Oct 21:20:20 21:23:12 25° 34° (NE) 21:26:02 145.800 FM
KITSAT 1 20 Oct 21:26:47 21:32:27 20° 43° (NE) 21:38:04 435.175 FM
ZACube-1 20 Oct 21:50:22 21:52:39 14° 66° (ENE) 21:54:55 437.345 MHz
RS-15 20 Oct 21:51:08 21:58:54 22° 102° (ESE) 22:06:32 29.354 - 29.394 USB, Beacon 29.352 USB
UKube-1 20 Oct 22:02:16 22:06:28 51° 74° (ENE) 22:10:41 145.840 MHz, 145.915 MHz
FUNcube-1 20 Oct 22:33:55 22:38:14 41° 73° (ENE) 22:42:32 145.950 - 145.970 MHz USB
SO-50 20 Oct 22:36:04 22:39:05 16° 47° (NE) 22:42:07 436.795 FM
Oscar 11 20 Oct 22:48:01 22:52:14 52° 260° (W) 22:56:29 145.825 FM, Beacon 2401.500 USB
ISS 20 Oct 22:56:59 22:59:51 27° 229° (SW) 23:02:43 145.800 FM
HO-68 20 Oct 23:09:59 23:14:55 20° 266° (W) 23:19:54 435.675 MHz FM
KITSAT 1 20 Oct 23:20:49 23:28:56 89° 64° (ENE) 23:37:00 435.175 FM
ZACube-1 20 Oct 23:24:04 23:28:34 52° 260° (W) 23:33:03 437.345 MHz
UKube-1 20 Oct 23:41:34 23:42:54 11° 267° (W) 23:44:14 145.840 MHz, 145.915 MHz
RS-15 20 Oct 23:58:52 00:09:56 80° 300° (WNW) 00:20:55 29.354 - 29.394 USB, Beacon 29.352 USB
MaSat-1 21 Oct 00:08:56 00:11:05 14° 104° (ESE) 00:13:09 437.345 MHz
FUNcube-1 21 Oct 00:11:54 00:14:43 16° 267° (W) 00:17:32 145.950 - 145.970 MHz USB
SO-50 21 Oct 00:15:14 00:20:02 62° 244° (WSW) 00:24:51 436.795 FM
UOSAT-12 21 Oct 00:24:21 00:27:24 17° 48° (NE) 00:30:24 437.025 FM, 437.400 FM
KITSAT 1 21 Oct 01:19:04 01:23:12 15° 259° (W) 01:27:21 435.175 FM
MaSat-1 21 Oct 01:42:25 01:46:34 43° 295° (WNW) 01:50:25 437.345 MHz
Oscar 19 21 Oct 01:46:37 01:49:05 14° 92° (E) 01:51:32 437.125 CW, 437.150 USB
UOSAT-12 21 Oct 02:03:17 02:07:52 54° 245° (WSW) 02:12:21 437.025 FM, 437.400 FM
RS-15 21 Oct 02:16:13 02:24:16 23° 325° (NW) 02:32:24 29.354 - 29.394 USB, Beacon 29.352 USB
JAS-1B 21 Oct 02:29:15 02:35:25 38° 100° (E) 02:42:37 435.800 - 435.900 CW/SSB
Oscar 16 21 Oct 02:29:38 02:34:27 40° 99° (E) 02:39:14 437.025 USB, Beacon 2401.1428
Uribyol 2 21 Oct 02:42:02 02:45:57 21° 95° (E) 02:49:50 436.500 FM
ITAMSAT 1 21 Oct 02:46:50 02:50:52 22° 95° (E) 02:54:52 435.822 SSB
AO-Echo 21 Oct 02:59:40 03:04:41 42° 99° (E) 03:09:41 ?
Oscar 19 21 Oct 03:23:43 03:28:44 58° 286° (WNW) 03:33:43 437.125 CW, 437.150 USB
